AUA99R EKCH-LOWW

Flight info

Callsign AUA99R
Flight time 1h 16m
Altitude 37000
Route SALLO M44 KOGIM M602 USEDU DCT LUROS M725 HDO DCT EVIKU DCT BITSI DCT MIKOV MIKOV8W
Aircraft A320/M-SDE2E3FGHIJ1RWXY/LB1

Departure

Time 2026-05-07 15:55
Airport Copenhagen Kastrup Airport (EKCH)

Arrival

Time 2026-05-07 17:11
Airport Vienna International Airport (LOWW)
Time Latitude Longitude Altitude Speed Heading
2026-05-07 14:53 55.62741 12.64036 24 ft 0 kts 33°
2026-05-07 14:54 55.62741 12.64037 24 ft 0 kts 33°
2026-05-07 15:19 55.62741 12.64036 24 ft 0 kts 33°
2026-05-07 15:43 55.62738 12.64032 24 ft 2 kts 32°
2026-05-07 15:43 55.62721 12.64015 26 ft 3 kts 24°
2026-05-07 15:43 55.62703 12.64003 26 ft 3 kts 10°
2026-05-07 15:44 55.62683 12.64000 26 ft 3 kts 340°
2026-05-07 15:44 55.62671 12.64012 26 ft 1 kts 304°
2026-05-07 15:44 55.62670 12.64014 26 ft 0 kts 303°
2026-05-07 15:46 55.62673 12.64006 27 ft 2 kts 303°
2026-05-07 15:46 55.62688 12.63965 26 ft 6 kts 303°
2026-05-07 15:46 55.62705 12.63891 26 ft 7 kts 265°
2026-05-07 15:47 55.62663 12.63850 24 ft 8 kts 165°
2026-05-07 15:47 55.62622 12.63943 25 ft 12 kts 123°
2026-05-07 15:47 55.62567 12.64092 26 ft 17 kts 123°
2026-05-07 15:47 55.62499 12.64271 24 ft 18 kts 126°
2026-05-07 15:48 55.62420 12.64457 24 ft 16 kts 127°
2026-05-07 15:48 55.62360 12.64614 24 ft 16 kts 123°
2026-05-07 15:48 55.62310 12.64749 26 ft 10 kts 124°
2026-05-07 15:48 55.62260 12.64793 24 ft 8 kts 178°
2026-05-07 15:49 55.62206 12.64766 24 ft 10 kts 213°
2026-05-07 15:49 55.62148 12.64698 24 ft 9 kts 213°
2026-05-07 15:49 55.62083 12.64624 23 ft 14 kts 213°
2026-05-07 15:49 55.62006 12.64536 24 ft 12 kts 211°
2026-05-07 15:50 55.61916 12.64506 24 ft 15 kts 175°
2026-05-07 15:50 55.61820 12.64536 26 ft 13 kts 169°
2026-05-07 15:50 55.61733 12.64564 25 ft 12 kts 169°
2026-05-07 15:50 55.61657 12.64543 24 ft 12 kts 209°
2026-05-07 15:51 55.61566 12.64439 24 ft 19 kts 213°
2026-05-07 15:51 55.61445 12.64299 25 ft 21 kts 212°
2026-05-07 15:51 55.61328 12.64165 24 ft 20 kts 213°
2026-05-07 15:51 55.61204 12.64023 26 ft 23 kts 213°
2026-05-07 15:52 55.61063 12.63860 24 ft 25 kts 213°
2026-05-07 15:52 55.60927 12.63703 24 ft 19 kts 213°
2026-05-07 15:52 55.60841 12.63605 26 ft 11 kts 212°
2026-05-07 15:52 55.60776 12.63626 24 ft 10 kts 133°
2026-05-07 15:53 55.60726 12.63722 24 ft 11 kts 132°
2026-05-07 15:53 55.60679 12.63817 27 ft 8 kts 130°
2026-05-07 15:53 55.60670 12.63856 25 ft 1 kts 73°
2026-05-07 15:53 55.60678 12.63868 27 ft 3 kts 41°
2026-05-07 15:54 55.60681 12.63872 27 ft 0 kts 41°
2026-05-07 15:54 55.60726 12.63944 27 ft 34 kts 41°
2026-05-07 15:54 55.61094 12.64508 23 ft 103 kts 41°
2026-05-07 15:54 55.61765 12.65554 29 ft 153 kts 41°
2026-05-07 15:55 55.62571 12.66818 695 ft 151 kts 39°
2026-05-07 15:55 55.63390 12.68066 1311 ft 165 kts 38°
2026-05-07 15:55 55.64310 12.69480 1669 ft 186 kts 39°
2026-05-07 15:55 55.65236 12.71291 1970 ft 214 kts 61°
2026-05-07 15:56 55.65444 12.74038 2371 ft 245 kts 101°
2026-05-07 15:56 55.64548 12.76710 3007 ft 265 kts 137°
2026-05-07 15:56 55.62999 12.78522 3928 ft 270 kts 154°
2026-05-07 15:56 55.61301 12.79970 4917 ft 272 kts 154°
2026-05-07 15:57 55.59585 12.81452 5876 ft 275 kts 153°
2026-05-07 15:57 55.57864 12.82940 6830 ft 276 kts 153°
2026-05-07 15:57 55.56126 12.84440 7716 ft 279 kts 153°
2026-05-07 15:57 55.54363 12.85956 8621 ft 282 kts 153°
2026-05-07 15:58 55.52591 12.87478 9511 ft 285 kts 153°
2026-05-07 15:58 55.51405 12.88495 10100 ft 287 kts 153°
2026-05-07 15:58 55.49567 12.90068 10574 ft 305 kts 153°
2026-05-07 15:58 55.47582 12.91763 10832 ft 328 kts 153°
2026-05-07 15:59 55.44757 12.94164 11414 ft 347 kts 154°
2026-05-07 15:59 55.43275 12.95417 11864 ft 351 kts 154°
2026-05-07 15:59 55.41063 12.97290 12587 ft 355 kts 154°
2026-05-07 15:59 55.38819 12.99190 13308 ft 360 kts 154°
2026-05-07 16:00 55.36551 13.01108 13997 ft 365 kts 155°
2026-05-07 16:00 55.34248 13.03050 14622 ft 369 kts 155°
2026-05-07 16:00 55.31923 13.05008 15249 ft 372 kts 155°
2026-05-07 16:00 55.29576 13.06984 15910 ft 376 kts 155°
2026-05-07 16:01 55.27206 13.08978 16553 ft 379 kts 155°
2026-05-07 16:01 55.24819 13.10987 17196 ft 382 kts 155°
2026-05-07 16:01 55.22411 13.13016 17814 ft 386 kts 155°
2026-05-07 16:01 55.19986 13.15053 18414 ft 389 kts 155°
2026-05-07 16:02 55.17529 13.17105 18932 ft 392 kts 155°
2026-05-07 16:02 55.15057 13.19169 19447 ft 395 kts 155°
2026-05-07 16:02 55.12562 13.21253 19968 ft 398 kts 155°
2026-05-07 16:02 55.10081 13.23326 20487 ft 401 kts 155°
2026-05-07 16:03 55.07554 13.25434 21003 ft 404 kts 156°
2026-05-07 16:03 55.05009 13.27551 21506 ft 406 kts 156°
2026-05-07 16:03 55.02449 13.29678 22003 ft 409 kts 156°
2026-05-07 16:03 54.99866 13.31823 22488 ft 412 kts 156°
2026-05-07 16:04 54.97264 13.33977 22977 ft 415 kts 156°
2026-05-07 16:04 54.94553 13.35656 23435 ft 414 kts 170°
2026-05-07 16:04 54.91707 13.36505 23850 ft 416 kts 173°
2026-05-07 16:04 54.88837 13.37308 24238 ft 419 kts 173°
2026-05-07 16:05 54.85958 13.38097 24640 ft 421 kts 173°
2026-05-07 16:05 54.83051 13.38885 25025 ft 423 kts 173°
2026-05-07 16:05 54.80136 13.39677 25405 ft 425 kts 173°
2026-05-07 16:05 54.77208 13.40472 25785 ft 427 kts 172°
2026-05-07 16:06 54.74270 13.41274 26170 ft 429 kts 172°
2026-05-07 16:06 54.71312 13.42084 26538 ft 431 kts 172°
2026-05-07 16:06 54.68345 13.42901 26921 ft 432 kts 172°
2026-05-07 16:06 54.65368 13.43720 27294 ft 434 kts 172°
2026-05-07 16:07 54.62377 13.44538 27662 ft 436 kts 172°
2026-05-07 16:07 54.59377 13.45356 28022 ft 438 kts 172°
2026-05-07 16:07 54.56361 13.46173 28379 ft 439 kts 172°
2026-05-07 16:07 54.53341 13.46988 28720 ft 440 kts 172°
2026-05-07 16:08 54.50309 13.47807 29068 ft 442 kts 172°
2026-05-07 16:08 54.47269 13.48629 29406 ft 443 kts 172°
2026-05-07 16:08 54.44223 13.49453 29734 ft 444 kts 172°
2026-05-07 16:08 54.41166 13.50279 30078 ft 445 kts 172°
2026-05-07 16:09 54.38113 13.51100 30482 ft 443 kts 172°
2026-05-07 16:09 54.35078 13.51915 30857 ft 442 kts 172°
2026-05-07 16:09 54.32000 13.52744 31197 ft 441 kts 172°
2026-05-07 16:09 54.29007 13.53549 31518 ft 441 kts 172°
2026-05-07 16:10 54.25976 13.54365 31863 ft 441 kts 172°
2026-05-07 16:10 54.22943 13.55178 32203 ft 441 kts 172°
2026-05-07 16:10 54.19917 13.55983 32552 ft 440 kts 172°
2026-05-07 16:10 54.16851 13.56795 32895 ft 440 kts 172°
2026-05-07 16:11 54.13873 13.57585 33236 ft 439 kts 172°
2026-05-07 16:11 54.10857 13.58389 33584 ft 439 kts 172°
2026-05-07 16:11 54.07804 13.59199 33940 ft 438 kts 172°
2026-05-07 16:11 54.04794 13.59994 34258 ft 438 kts 172°
2026-05-07 16:12 54.01785 13.60790 34521 ft 438 kts 172°
2026-05-07 16:12 53.98814 13.61579 34777 ft 438 kts 172°
2026-05-07 16:12 53.95764 13.62387 35051 ft 438 kts 172°
2026-05-07 16:12 53.92796 13.63174 35299 ft 438 kts 172°
2026-05-07 16:13 53.89785 13.63970 35545 ft 438 kts 172°
2026-05-07 16:13 53.86771 13.64759 35794 ft 438 kts 173°
2026-05-07 16:13 53.83755 13.65548 36042 ft 438 kts 173°
2026-05-07 16:13 53.80749 13.66332 36277 ft 437 kts 173°
2026-05-07 16:14 53.77740 13.67119 36498 ft 437 kts 173°
2026-05-07 16:14 53.74729 13.67908 36712 ft 438 kts 173°
2026-05-07 16:14 53.71724 13.68694 36934 ft 437 kts 173°
2026-05-07 16:14 53.68710 13.69480 37035 ft 438 kts 173°
2026-05-07 16:15 53.65698 13.70264 37052 ft 439 kts 173°
2026-05-07 16:15 53.59665 13.71826 37041 ft 439 kts 173°
2026-05-07 16:16 53.53630 13.73389 37037 ft 439 kts 173°
2026-05-07 16:16 53.47604 13.74952 37027 ft 438 kts 173°
2026-05-07 16:17 53.41574 13.76499 37025 ft 438 kts 173°
2026-05-07 16:17 53.35545 13.78038 37023 ft 438 kts 173°
2026-05-07 16:18 53.29508 13.79581 37018 ft 438 kts 173°
2026-05-07 16:18 53.23482 13.81117 37019 ft 438 kts 173°
2026-05-07 16:19 53.17460 13.82648 37013 ft 438 kts 173°
2026-05-07 16:19 53.11433 13.84183 37008 ft 438 kts 173°
2026-05-07 16:20 53.05420 13.85701 37008 ft 438 kts 174°
2026-05-07 16:20 52.99394 13.87213 37008 ft 438 kts 174°
2026-05-07 16:21 52.93378 13.88728 37006 ft 437 kts 173°
2026-05-07 16:21 52.87363 13.90252 37087 ft 437 kts 174°
2026-05-07 16:22 52.81353 13.91769 37082 ft 437 kts 174°
2026-05-07 16:22 52.75352 13.93255 37082 ft 436 kts 174°
2026-05-07 16:23 52.69347 13.94745 37080 ft 436 kts 174°
2026-05-07 16:23 52.63347 13.96224 37080 ft 436 kts 174°
2026-05-07 16:24 52.57344 13.97707 37080 ft 436 kts 174°
2026-05-07 16:24 52.51398 13.99171 37082 ft 436 kts 174°
2026-05-07 16:25 52.45353 14.00654 37082 ft 435 kts 174°
2026-05-07 16:25 52.39363 14.02132 37082 ft 435 kts 174°
2026-05-07 16:26 52.33401 14.03603 37080 ft 435 kts 174°
2026-05-07 16:26 52.27398 14.05072 37077 ft 434 kts 174°
2026-05-07 16:27 52.21419 14.06518 37073 ft 434 kts 174°
2026-05-07 16:27 52.15451 14.07962 37073 ft 433 kts 174°
2026-05-07 16:28 52.09489 14.09407 37073 ft 433 kts 174°
2026-05-07 16:28 52.03532 14.10842 37069 ft 433 kts 174°
2026-05-07 16:29 51.97577 14.12263 37067 ft 432 kts 174°
2026-05-07 16:29 51.91627 14.13694 37062 ft 432 kts 174°
2026-05-07 16:30 51.85690 14.15126 37060 ft 432 kts 174°
2026-05-07 16:30 51.79743 14.16544 37047 ft 431 kts 174°
2026-05-07 16:31 51.73809 14.17957 37050 ft 431 kts 174°
2026-05-07 16:31 51.67885 14.19368 37048 ft 430 kts 175°
2026-05-07 16:32 51.61956 14.20772 37044 ft 430 kts 175°
2026-05-07 16:32 51.56036 14.22173 37050 ft 430 kts 175°
2026-05-07 16:33 51.50116 14.23568 37056 ft 430 kts 175°
2026-05-07 16:33 51.44201 14.24952 37045 ft 429 kts 175°
2026-05-07 16:34 51.38293 14.26329 37046 ft 429 kts 175°
2026-05-07 16:34 51.32389 14.27705 37040 ft 429 kts 175°
2026-05-07 16:35 51.26481 14.29094 37037 ft 429 kts 175°
2026-05-07 16:35 51.20582 14.30464 37037 ft 428 kts 175°
2026-05-07 16:36 51.14682 14.31826 37034 ft 428 kts 175°
2026-05-07 16:36 51.08785 14.33192 37028 ft 428 kts 175°
2026-05-07 16:36 51.05838 14.33874 36858 ft 428 kts 175°
2026-05-07 16:37 51.02886 14.34560 36852 ft 428 kts 175°
2026-05-07 16:37 50.97992 14.35686 36844 ft 428 kts 175°
2026-05-07 16:38 50.92102 14.37136 36844 ft 430 kts 171°
2026-05-07 16:38 50.86282 14.39307 36842 ft 430 kts 171°
2026-05-07 16:39 50.80454 14.41476 36844 ft 429 kts 171°
2026-05-07 16:39 50.74639 14.43640 36837 ft 429 kts 171°
2026-05-07 16:40 50.68837 14.45786 36836 ft 429 kts 171°
2026-05-07 16:40 50.63022 14.47921 36830 ft 428 kts 171°
2026-05-07 16:41 50.57216 14.50048 36829 ft 428 kts 171°
2026-05-07 16:41 50.51418 14.52177 36827 ft 428 kts 171°
2026-05-07 16:42 50.46485 14.54919 36837 ft 436 kts 156°
2026-05-07 16:42 50.41675 14.60840 36979 ft 445 kts 141°
2026-05-07 16:43 50.37239 14.67615 36973 ft 445 kts 141°
2026-05-07 16:43 50.32775 14.74346 36967 ft 445 kts 141°
2026-05-07 16:44 50.28308 14.81059 36967 ft 445 kts 141°
2026-05-07 16:44 50.23840 14.87778 36965 ft 445 kts 141°
2026-05-07 16:45 50.19374 14.94478 36969 ft 445 kts 142°
2026-05-07 16:45 50.14903 15.01154 36967 ft 445 kts 142°
2026-05-07 16:46 50.10425 15.07835 36965 ft 445 kts 142°
2026-05-07 16:46 50.05948 15.14501 36960 ft 445 kts 142°
2026-05-07 16:47 50.01468 15.21145 36956 ft 445 kts 142°
2026-05-07 16:47 49.96781 15.27297 36944 ft 440 kts 148°
2026-05-07 16:48 49.91908 15.33031 36937 ft 439 kts 149°
2026-05-07 16:48 49.87010 15.38703 36938 ft 439 kts 149°
2026-05-07 16:48 49.84567 15.41535 36763 ft 438 kts 149°
2026-05-07 16:49 49.82128 15.44377 36063 ft 439 kts 149°
2026-05-07 16:49 49.79685 15.47232 35317 ft 441 kts 149°
2026-05-07 16:49 49.77238 15.50090 34600 ft 442 kts 150°
2026-05-07 16:49 49.74781 15.52953 33876 ft 443 kts 150°
2026-05-07 16:50 49.72317 15.55816 33052 ft 443 kts 150°
2026-05-07 16:50 49.69845 15.58686 32210 ft 445 kts 150°
2026-05-07 16:50 49.67373 15.61550 31367 ft 446 kts 150°
2026-05-07 16:50 49.64882 15.64428 30527 ft 447 kts 149°
2026-05-07 16:51 49.62387 15.67304 29619 ft 449 kts 149°
2026-05-07 16:51 49.59899 15.70176 28905 ft 444 kts 149°
2026-05-07 16:51 49.57442 15.73015 28217 ft 439 kts 149°
2026-05-07 16:51 49.55005 15.75830 27524 ft 435 kts 149°
2026-05-07 16:52 49.52598 15.78600 26876 ft 430 kts 149°
2026-05-07 16:52 49.50213 15.81334 26242 ft 426 kts 149°
2026-05-07 16:52 49.47844 15.84045 25629 ft 422 kts 149°
2026-05-07 16:52 49.45504 15.86721 25027 ft 417 kts 149°
2026-05-07 16:53 49.43185 15.89373 24443 ft 413 kts 149°
2026-05-07 16:53 49.40885 15.92000 23871 ft 410 kts 149°
2026-05-07 16:53 49.38611 15.94595 23280 ft 406 kts 148°
2026-05-07 16:53 49.36355 15.97169 22642 ft 402 kts 148°
2026-05-07 16:54 49.34113 15.99727 22009 ft 399 kts 148°
2026-05-07 16:54 49.31894 16.02251 21408 ft 396 kts 148°
2026-05-07 16:54 49.29695 16.04746 20825 ft 393 kts 148°
2026-05-07 16:54 49.27503 16.07228 20253 ft 390 kts 149°
2026-05-07 16:55 49.25204 16.09304 19703 ft 379 kts 162°
2026-05-07 16:55 49.22710 16.10517 19132 ft 373 kts 168°
2026-05-07 16:55 49.20222 16.11616 18591 ft 371 kts 168°
2026-05-07 16:55 49.17748 16.12697 18043 ft 369 kts 168°
2026-05-07 16:56 49.15286 16.13765 17460 ft 367 kts 168°
2026-05-07 16:56 49.12844 16.14822 16918 ft 364 kts 168°
2026-05-07 16:56 49.07993 16.16914 15875 ft 360 kts 167°
2026-05-07 16:57 49.05593 16.17947 15389 ft 357 kts 167°
2026-05-07 16:57 49.03209 16.18974 14897 ft 355 kts 167°
2026-05-07 16:57 49.00836 16.19996 14422 ft 353 kts 167°
2026-05-07 16:57 48.98479 16.21013 13952 ft 351 kts 167°
2026-05-07 16:58 48.96134 16.22025 13446 ft 349 kts 166°
2026-05-07 16:58 48.93804 16.23030 12930 ft 347 kts 166°
2026-05-07 16:58 48.91489 16.24025 12493 ft 345 kts 167°
2026-05-07 16:58 48.89216 16.24999 12065 ft 343 kts 167°
2026-05-07 16:59 48.86928 16.25979 11633 ft 341 kts 167°
2026-05-07 16:59 48.84623 16.26966 11201 ft 338 kts 167°
2026-05-07 16:59 48.82396 16.27918 10789 ft 336 kts 167°
2026-05-07 16:59 48.80147 16.28879 10372 ft 334 kts 167°
2026-05-07 17:00 48.77915 16.29831 9976 ft 333 kts 167°
2026-05-07 17:00 48.75658 16.30793 9579 ft 332 kts 167°
2026-05-07 17:00 48.73473 16.31726 9192 ft 330 kts 167°
2026-05-07 17:00 48.71245 16.32677 8800 ft 327 kts 167°
2026-05-07 17:01 48.69059 16.33607 8417 ft 325 kts 167°
2026-05-07 17:01 48.66916 16.34518 8052 ft 323 kts 167°
2026-05-07 17:01 48.64759 16.35434 7698 ft 321 kts 167°
2026-05-07 17:01 48.62607 16.36348 7365 ft 320 kts 167°
2026-05-07 17:02 48.60464 16.37259 7113 ft 319 kts 167°
2026-05-07 17:02 48.58331 16.38164 6869 ft 319 kts 167°
2026-05-07 17:02 48.56194 16.39067 6628 ft 317 kts 167°
2026-05-07 17:02 48.54073 16.39965 6412 ft 316 kts 167°
2026-05-07 17:03 48.51950 16.40864 6209 ft 316 kts 167°
2026-05-07 17:03 48.49843 16.41758 6001 ft 314 kts 167°
2026-05-07 17:03 48.47746 16.42645 5801 ft 308 kts 167°
2026-05-07 17:03 48.45735 16.43497 5621 ft 293 kts 167°
2026-05-07 17:04 48.43822 16.44309 5492 ft 279 kts 167°
2026-05-07 17:04 48.42001 16.45079 5379 ft 264 kts 167°
2026-05-07 17:04 48.40283 16.45805 5309 ft 249 kts 168°
2026-05-07 17:04 48.38661 16.46489 5224 ft 235 kts 168°
2026-05-07 17:05 48.37114 16.47140 5152 ft 227 kts 168°
2026-05-07 17:05 48.35601 16.47773 5050 ft 221 kts 168°
2026-05-07 17:05 48.34169 16.48381 4979 ft 212 kts 168°
2026-05-07 17:05 48.32790 16.48970 4911 ft 201 kts 168°
2026-05-07 17:06 48.31450 16.49541 4704 ft 199 kts 168°
2026-05-07 17:06 48.30128 16.50104 4463 ft 194 kts 168°
2026-05-07 17:06 48.28858 16.50646 4197 ft 186 kts 168°
2026-05-07 17:06 48.27629 16.51170 3962 ft 180 kts 168°
2026-05-07 17:07 48.26447 16.51673 3727 ft 174 kts 168°
2026-05-07 17:07 48.25303 16.52160 3501 ft 168 kts 167°
2026-05-07 17:07 48.24194 16.52632 3294 ft 163 kts 167°
2026-05-07 17:07 48.23111 16.53092 3073 ft 160 kts 167°
2026-05-07 17:08 48.22047 16.53544 2863 ft 158 kts 167°
2026-05-07 17:08 48.20988 16.53994 2656 ft 158 kts 167°
2026-05-07 17:08 48.19925 16.54445 2447 ft 159 kts 167°
2026-05-07 17:08 48.18870 16.54894 2240 ft 154 kts 167°
2026-05-07 17:09 48.17879 16.55315 2053 ft 140 kts 167°
2026-05-07 17:09 48.16958 16.55706 1856 ft 135 kts 167°
2026-05-07 17:09 48.16058 16.56087 1631 ft 133 kts 167°
2026-05-07 17:09 48.15157 16.56468 1392 ft 136 kts 167°
2026-05-07 17:10 48.14223 16.56861 1148 ft 144 kts 169°
2026-05-07 17:10 48.13256 16.57277 939 ft 145 kts 171°
2026-05-07 17:10 48.12293 16.57689 719 ft 139 kts 170°
2026-05-07 17:10 48.11399 16.58063 625 ft 122 kts 174°
2026-05-07 17:11 48.10747 16.58337 619 ft 66 kts 164°
2026-05-07 17:11 48.10462 16.58455 621 ft 30 kts 168°
2026-05-07 17:11 48.10260 16.58450 610 ft 26 kts 194°
2026-05-07 17:11 48.10120 16.58386 610 ft 17 kts 213°
2026-05-07 17:12 48.10089 16.58237 621 ft 13 kts 277°
2026-05-07 17:12 48.10173 16.58163 616 ft 18 kts 344°
2026-05-07 17:12 48.10309 16.58105 620 ft 23 kts 344°
2026-05-07 17:12 48.10470 16.58037 613 ft 26 kts 344°
2026-05-07 17:13 48.10656 16.57958 620 ft 29 kts 344°
2026-05-07 17:13 48.10850 16.57876 616 ft 29 kts 344°
2026-05-07 17:13 48.11036 16.57799 617 ft 23 kts 345°
2026-05-07 17:13 48.11138 16.57748 616 ft 13 kts 323°
2026-05-07 17:14 48.11189 16.57617 623 ft 17 kts 295°
2026-05-07 17:14 48.11245 16.57440 618 ft 20 kts 296°
2026-05-07 17:14 48.11312 16.57238 611 ft 23 kts 296°
2026-05-07 17:14 48.11384 16.57018 610 ft 21 kts 296°
2026-05-07 17:15 48.11419 16.56913 614 ft 11 kts 296°
2026-05-07 17:15 48.11485 16.56886 610 ft 12 kts 22°
2026-05-07 17:15 48.11546 16.56932 621 ft 7 kts 36°
2026-05-07 17:15 48.11550 16.57010 612 ft 8 kts 112°
2026-05-07 17:16 48.11527 16.57084 616 ft 7 kts 103°
2026-05-07 17:16 48.11576 16.57137 618 ft 7 kts 25°
2026-05-07 17:16 48.11595 16.57150 610 ft 3 kts 26°
2026-05-07 17:16 48.11599 16.57153 610 ft 0 kts 26°